Wind_Speed
16 9 4 3 2 5 6 6 3 6 6 6 9 8 5 4 2 0 1 5 9 7 7 10 13 13 14 13 12 5 7 7 8 9 9 9 8 9 9 11 11 11 10 10 9 8 8 8 9
14 9 2 1 4 6 9 5 4 4 6 7 6 5 4 5 2 2 1 7 9 6 6 8 10 10 9 10 9 8 5 5 7 8 9 8 7 7 8 8 9 9 9 8 8 7 7 7 7
14 9 5 3 5 11 9 1 3 4 4 5 5 3 1 3 2 1 7 6 8 8 8 7 8 8 7 7 7 6 6 6 6 7 7 6 7 5 6 6 5 7 6 5 5 5 4 5 5
11 7 6 2 4 8 2 2 3 3 3 3 3 4 0 2 3 2 7 9 9 8 9 8 7 7 6 5 6 7 7 6 5 5 5 5 5 4 4 4 4 4 3 3 2 2 3 3 3
10 8 7 3 6 2 2 2 2 3 3 4 3 2 2 2 3 2 5 7 9 10 9 9 8 7 6 4 5 5 5 5 4 4 4 4 3 3 3 3 2 2 2 1 1 2 3 3 4
11 10 3 6 7 5 4 0 1 1 3 3 2 2 2 1 3 3 3 5 6 9 9 9 9 8 7 5 3 3 3 2 2 2 1 2 3 3 3 3 3 2 1 1 2 3 4 5 5
11 9 5 2 3 4 5 4 1 2 2 2 2 2 4 3 2 4 5 6 6 8 10 10 9 8 6 5 4 2 2 2 1 0 1 1 2 3 3 4 4 2 2 3 4 5 6 7 7
14 11 5 1 2 2 4 5 1 3 5 2 4 4 1 1 4 5 6 6 7 8 9 10 10 9 9 7 7 6 4 4 4 4 4 5 4 4 5 5 5 3 3 3 4 6 7 8 9
17 15 7 1 5 8 5 5 2 3 4 5 5 8 5 3 4 5 7 7 6 8 10 10 10 11 10 10 10 8 8 8 8 8 8 7 7 6 6 6 6 6 6 7 7 8 7 8 9
18 19 14 8 2 8 11 7 6 5 6 5 6 10 7 7 7 6 8 9 7 7 7 8 9 9 10 10 11 11 10 10 10 10 10 9 9 8 8 8 8 8 9 10 10 9 9 9 10
20 18 16 14 11 9 14 12 12 7 8 7 7 10 9 8 9 9 9 10 10 11 9 8 10 10 11 10 11 12 12 13 13 13 12 10 11 10 9 9 10 10 11 12 12 11 11 10 11
17 16 18 17 15 16 16 14 13 12 8 10 9 10 9 8 9 9 11 12 13 14 13 12 12 12 11 11 12 12 13 14 14 14 11 10 11 9 10 10 10 12 13 13 13 13 14 13 12
13 15 17 18 18 18 16 14 16 12 10 12 12 13 13 12 12 12 13 14 15 16 15 16 16 16 15 14 14 14 14 14 15 17 16 14 15 13 13 12 12 12 13 14 15 14 15 16 14
13 14 16 17 16 16 16 14 17 9 10 11 12 13 14 14 14 17 16 15 15 16 18 19 19 18 18 18 17 16 16 16 17 19 18 16 15 14 13 14 14 13 13 15 16 16 17 18 17
12 12 14 16 16 17 16 18 17 13 14 13 14 15 16 15 16 15 15 16 17 16 17 19 19 20 21 20 20 20 19 19 18 20 21 19 19 16 16 17 17 18 17 18 18 19 20 20 19
10 11 14 16 15 15 14 18 15 13 14 11 12 12 13 14 15 14 15 16 17 18 18 18 19 20 22 21 22 21 21 21 21 22 23 23 23 21 21 20 21 21 21 21 21 20 22 23 22
12 11 11 10 10 14 16 19 15 12 15 15 14 13 14 15 15 13 14 15 16 18 19 20 19 20 21 22 24 24 23 25 24 25 25 25 26 25 24 24 25 24 24 25 24 25 26 23 24
13 8 9 10 12 14 18 21 17 16 18 20 20 21 19 20 15 15 14 16 18 18 20 22 22 21 21 23 26 27 26 25 27 26 27 28 28 28 27 27 28 28 26 27 28 26 27 27 25
16 9 10 6 6 13 21 27 24 20 22 25 24 22 21 22 16 17 16 15 18 20 20 22 23 23 24 24 26 27 27 27 26 27 27 28 30 31 30 30 31 30 29 29 31 31 29 31 26
16 19 19 15 16 21 25 33 30 26 26 25 24 24 24 22 20 18 19 22 20 21 23 23 25 25 26 27 26 28 29 29 30 29 31 30 31 32 34 33 33 34 32 34 33 34 35 33 31
17 18 16 16 19 24 29 38 33 27 24 22 21 20 21 21 20 20 21 22 20 20 20 23 26 27 29 29 29 30 31 31 32 31 30 29 30 32 34 34 35 36 36 36 37 37 38 37 34
20 19 17 17 18 12 19 14 37 32 27 25 23 20 18 20 22 24 24 25 24 18 18 21 26 27 29 30 32 34 34 33 30 30 30 30 31 34 36 37 37 38 39 39 40 40 41 42 38
16 12 12 13 19 21 25 18 28 27 35 29 20 14 20 16 18 21 21 18 17 15 17 19 21 25 26 29 30 31 33 33 34 33 32 33 34 35 37 40 40 39 40 41 41 42 44 45 40
20 16 13 13 14 9 21 18 8 15 10 4 3 4 6 14 17 14 12 17 22 23 25 28 23 25 26 27 29 28 29 29 31 32 34 35 36 38 39 41 42 44 44 44 42 43 45 45 40
19 13 3 3 2 7 3 13 24 6 11 5 6 12 23 24 20 23 25 23 26 29 29 21 20 20 23 26 25 24 24 26 27 28 31 34 37 38 40 43 44 46 47 47 45 44 45 47 46
21 22 11 7 4 4 9 12 8 3 7 13 15 10 14 20 22 23 29 31 27 20 23 21 21 22 23 23 22 25 24 23 25 25 24 25 28 29 33 37 43 45 46 48 47 47 46 44 51
25 29 24 20 15 7 12 24 23 26 19 19 20 21 22 25 27 25 28 29 25 20 20 19 22 24 25 25 25 23 22 21 20 20 21 20 21 25 28 32 38 42 44 46 48 49 48 44 48
32 23 14 13 3 4 10 18 24 12 27 26 23 18 13 20 23 16 18 18 19 22 24 25 28 29 27 24 21 20 20 18 17 17 17 19 20 22 26 29 33 36 39 43 45 47 47 47 48
26 26 14 10 16 4 2 14 20 13 11 8 5 11 14 16 19 22 25 30 31 36 34 31 25 22 24 24 21 19 18 18 20 23 26 28 29 28 28 32 35 36 37 38 42 45 44 47 49
23 28 34 20 6 16 23 36 15 15 12 18 20 22 22 17 18 19 22 21 21 21 20 13 16 18 21 22 21 22 25 28 30 33 35 37 37 36 36 37 39 40 39 37 39 41 42 43 43
Wind_Direction
171 172 169 13 44 35 140 115 152 167 140 107 144 156 148 142 152 155 65 145 143 147 108 115 122 126 127 129 155 143 69 88 89 92 95 90 89 92 82 80 86 87 93 95 97 99 98 94 94
162 159 147 39 359 118 80 101 149 119 112 127 134 126 113 153 177 285 200 160 154 163 149 140 134 133 128 122 130 132 146 92 89 96 96 101 96 83 82 86 87 92 91 91 96 95 91 86 79
159 145 139 48 26 90 100 151 352 107 149 154 168 156 49 100 74 66 149 160 160 165 173 170 154 152 145 140 135 127 122 108 100 100 97 96 92 86 85 87 83 81 82 88 85 86 73 63 62
156 159 121 75 57 83 1 164 237 248 190 180 166 149 101 35 65 130 144 163 163 175 184 176 174 169 156 146 136 135 130 121 108 100 94 80 72 76 77 89 87 95 91 72 71 57 47 22 21
163 148 126 81 104 22 320 320 263 201 155 150 177 131 67 54 102 165 144 172 164 179 188 182 180 179 178 172 148 142 130 117 105 95 97 92 75 63 62 66 81 86 87 82 29 21 4 345 356
179 165 216 33 135 9 5 258 339 290 110 142 197 131 95 65 122 202 174 189 174 180 190 190 191 192 191 194 180 165 142 124 102 77 80 94 53 41 34 37 39 46 13 338 339 342 334 327 339
193 194 208 318 128 9 9 7 153 266 269 235 240 231 143 136 174 209 204 201 194 189 198 196 199 204 208 217 225 222 207 194 197 235 240 302 327 3 1 4 9 356 331 320 325 318 315 318 319
204 206 201 51 346 340 328 327 236 247 290 297 267 289 29 196 200 212 225 221 206 203 211 208 208 212 216 221 228 237 238 256 263 265 270 281 309 326 334 338 340 342 321 317 315 311 308 308 314
211 219 191 279 273 258 271 301 284 272 293 297 283 276 271 277 243 231 235 239 228 216 216 216 217 218 223 229 238 245 248 255 260 267 269 279 287 298 309 314 315 309 296 290 293 298 304 313 313
212 220 221 242 246 241 274 290 287 256 277 281 274 270 266 258 259 260 251 250 246 238 225 230 232 232 237 244 251 256 261 263 265 266 270 273 277 288 295 302 299 295 292 289 285 288 293 297 300
216 219 219 224 245 257 265 279 290 277 275 285 270 273 270 258 262 260 261 258 252 247 247 243 238 240 245 251 259 265 268 269 271 273 272 271 278 286 289 294 297 295 290 287 284 283 286 293 298
214 215 222 224 234 249 260 275 278 276 271 276 276 277 277 279 269 263 257 256 256 256 251 251 254 255 258 260 263 265 270 272 274 272 273 269 271 277 280 288 292 297 298 295 289 286 289 292 293
220 225 231 241 247 258 266 268 269 273 270 264 273 278 288 284 279 274 267 260 257 261 261 259 257 260 262 263 268 270 272 272 270 275 278 275 271 268 273 279 288 295 299 295 288 283 282 284 285
226 233 248 256 260 266 266 265 265 291 281 271 268 271 279 286 281 272 273 276 271 262 260 259 261 261 261 263 267 268 270 269 269 271 277 280 278 277 279 281 287 295 297 295 286 278 275 279 280
242 243 249 261 265 268 272 265 272 264 261 262 270 270 272 280 278 282 278 273 274 274 267 263 263 263 266 268 266 266 269 272 272 272 274 271 270 269 276 281 283 291 295 296 295 289 284 279 276
252 258 259 264 269 278 272 268 278 263 272 269 269 266 266 275 283 280 276 274 274 275 277 274 270 268 268 271 269 268 270 272 274 274 274 272 271 270 271 275 283 285 293 296 297 293 288 282 281
245 257 269 286 270 271 277 272 279 275 279 280 278 265 269 273 279 290 286 281 274 274 274 276 272 271 270 268 268 269 268 273 275 275 277 277 275 275 273 274 276 282 286 290 294 291 290 283 286
237 251 254 267 277 277 281 275 276 271 268 266 265 270 275 276 284 282 278 278 276 269 270 271 275 272 271 267 266 269 269 270 274 278 279 278 278 277 275 271 271 277 279 282 286 286 290 274 283
222 228 257 226 248 269 278 279 281 275 264 268 271 273 270 271 280 280 281 272 273 278 276 279 277 278 271 270 270 272 276 276 272 275 276 276 276 275 274 273 272 274 278 279 280 281 282 276 277
230 239 239 246 255 278 283 281 281 284 280 280 276 269 273 277 278 275 273 273 271 269 273 276 280 278 276 273 271 268 269 270 270 268 268 270 273 275 275 274 275 275 274 275 277 279 279 282 279
235 245 249 261 272 279 287 286 286 284 283 285 285 283 275 277 276 270 265 266 266 267 273 277 277 276 274 271 268 267 266 265 266 269 273 276 275 275 275 274 273 273 274 273 275 275 277 282 275
241 245 256 265 275 280 284 294 284 288 286 284 290 293 286 270 268 267 266 268 276 283 278 276 273 274 274 272 270 272 274 272 273 269 267 266 266 269 271 272 272 272 272 271 273 273 273 273 275
242 245 253 263 270 280 275 274 285 293 298 301 299 275 273 281 272 266 263 265 262 273 293 288 277 275 275 277 277 277 275 275 272 268 265 263 262 265 270 273 275 275 274 273 272 273 271 268 270
245 247 249 255 268 271 267 260 272 296 312 331 349 303 311 314 308 265 243 280 282 279 286 294 280 273 275 278 280 278 274 273 270 268 268 266 263 262 265 269 273 274 273 274 274 273 273 269 266
222 217 222 264 213 236 224 249 250 157 289 260 254 279 285 283 269 257 278 286 290 285 291 281 274 274 280 279 277 276 276 275 274 272 270 267 267 268 269 269 269 271 273 273 271 270 271 270 253
232 223 195 197 205 266 217 247 264 296 243 251 266 253 254 281 283 278 268 280 283 279 284 283 282 282 281 274 272 271 269 268 268 271 270 270 273 271 269 270 272 272 271 270 270 269 270 266 262
229 222 238 248 267 297 252 259 264 263 257 270 276 286 271 288 290 291 291 286 283 275 278 288 299 298 289 279 274 267 263 264 267 270 274 279 281 282 279 277 277 276 274 272 270 268 267 262 263
224 233 199 202 153 243 255 269 255 246 302 292 281 283 287 279 285 292 299 296 294 285 282 292 300 295 281 271 262 259 259 261 264 268 279 287 291 295 295 291 287 285 281 276 273 270 268 264 263
214 212 204 206 225 172 273 259 275 280 232 196 296 307 305 302 299 308 319 312 300 289 297 299 289 267 257 248 239 245 254 264 276 287 292 293 293 293 298 301 300 294 288 280 274 271 269 266 264
229 235 224 219 211 231 249 265 283 240 215 278 297 292 288 298 306 307 304 305 308 303 292 268 261 251 244 245 255 268 276 283 287 288 288 290 292 290 294 296 298 296 289 283 279 274 269 266 266
Height
3176 3179 3180 3180 3185 3182 3184 3185 3184 3185 3186 3186 3188 3188 3189 3189 3190 3193 3190 3191 3192 3194 3195 3196 3196 3197 3198 3199 3199 3200 3200 3201 3201 3201 3201 3201 3201 3201 3201 3201 3201 3201 3201 3200 3200 3200 3199 3199 3199
3176 3178 3180 3180 3182 3182 3185 3184 3184 3185 3186 3187 3188 3188 3188 3190 3190 3190 3190 3191 3193 3195 3196 3197 3197 3198 3199 3198 3200 3201 3202 3202 3202 3202 3202 3203 3202 3202 3202 3203 3203 3202 3202 3202 3201 3201 3201 3201 3201
3176 3178 3180 3180 3182 3182 3184 3185 3185 3186 3187 3188 3188 3188 3188 3190 3190 3190 3190 3192 3194 3195 3197 3197 3198 3199 3200 3200 3201 3201 3202 3202 3203 3203 3203 3203 3203 3203 3203 3203 3203 3204 3204 3204 3203 3202 3202 3202 3202
3176 3179 3181 3181 3183 3184 3183 3185 3186 3186 3187 3187 3188 3188 3188 3189 3190 3190 3192 3192 3194 3195 3197 3197 3198 3199 3199 3201 3201 3202 3203 3203 3203 3203 3203 3204 3204 3204 3204 3204 3204 3205 3205 3205 3204 3203 3203 3203 3203
3176 3178 3179 3180 3182 3184 3184 3184 3185 3185 3186 3186 3187 3188 3188 3188 3189 3189 3192 3193 3195 3196 3196 3198 3198 3199 3200 3201 3201 3202 3203 3203 3204 3204 3204 3205 3205 3205 3205 3205 3205 3205 3205 3205 3204 3203 3204 3204 3203
3177 3178 3179 3181 3182 3183 3184 3184 3184 3185 3185 3186 3187 3188 3188 3188 3190 3190 3191 3192 3194 3196 3197 3198 3199 3199 3200 3201 3201 3202 3202 3203 3203 3204 3205 3205 3205 3205 3205 3205 3205 3205 3205 3204 3204 3204 3204 3203 3203
3176 3178 3178 3180 3182 3182 3183 3183 3183 3183 3184 3186 3187 3187 3188 3189 3190 3191 3192 3192 3193 3194 3196 3197 3197 3199 3199 3200 3201 3202 3203 3203 3203 3204 3205 3205 3205 3205 3205 3205 3205 3204 3204 3204 3204 3204 3204 3203 3203
3175 3177 3178 3180 3181 3182 3182 3183 3183 3182 3183 3185 3186 3186 3188 3188 3189 3191 3191 3192 3193 3194 3195 3196 3196 3198 3199 3200 3201 3202 3202 3203 3203 3204 3204 3205 3205 3205 3204 3204 3204 3204 3204 3204 3204 3203 3203 3202 3202
3173 3177 3177 3179 3179 3180 3181 3183 3183 3182 3182 3183 3184 3185 3187 3187 3188 3189 3190 3191 3192 3193 3194 3196 3196 3197 3198 3199 3200 3200 3201 3202 3203 3203 3204 3204 3203 3203 3204 3204 3204 3204 3203 3203 3203 3203 3202 3201 3201
3171 3174 3176 3177 3179 3179 3180 3181 3182 3182 3181 3182 3183 3183 3185 3186 3187 3187 3188 3189 3190 3192 3193 3194 3195 3196 3197 3197 3198 3199 3200 3201 3201 3201 3202 3202 3202 3202 3202 3203 3203 3203 3202 3202 3202 3201 3201 3200 3200
3169 3172 3174 3175 3178 3178 3178 3180 3179 3180 3181 3181 3182 3181 3183 3184 3185 3186 3186 3187 3188 3189 3190 3192 3193 3194 3195 3196 3197 3197 3198 3199 3199 3199 3200 3200 3200 3201 3201 3201 3201 3201 3200 3200 3199 3199 3198 3199 3198
3167 3170 3171 3174 3176 3177 3177 3178 3178 3178 3179 3178 3179 3180 3181 3182 3182 3183 3184 3185 3186 3187 3189 3190 3191 3192 3193 3193 3194 3195 3196 3197 3197 3197 3198 3199 3198 3199 3199 3199 3199 3199 3198 3198 3197 3197 3196 3196 3196
3164 3166 3168 3171 3173 3174 3175 3175 3175 3176 3177 3176 3177 3177 3178 3180 3180 3181 3182 3182 3183 3184 3186 3187 3189 3189 3190 3190 3191 3192 3193 3194 3194 3193 3195 3196 3196 3196 3197 3197 3196 3196 3196 3195 3195 3194 3193 3193 3194
3162 3164 3166 3168 3169 3170 3171 3173 3171 3176 3175 3174 3175 3175 3176 3177 3178 3178 3178 3180 3181 3183 3183 3184 3185 3186 3187 3187 3188 3189 3189 3190 3191 3190 3191 3192 3193 3193 3193 3193 3193 3193 3193 3193 3192 3192 3191 3190 3190
3161 3162 3164 3164 3166 3166 3168 3168 3168 3170 3171 3172 3172 3173 3173 3174 3174 3175 3176 3176 3177 3178 3179 3180 3181 3181 3182 3184 3184 3185 3186 3186 3187 3187 3186 3188 3189 3190 3190 3190 3190 3190 3190 3189 3188 3187 3187 3186 3186
3158 3160 3160 3162 3162 3163 3165 3164 3166 3167 3167 3169 3169 3170 3171 3171 3172 3173 3173 3173 3173 3173 3174 3175 3176 3177 3178 3179 3180 3180 3181 3182 3182 3183 3183 3184 3184 3186 3186 3186 3186 3186 3186 3185 3184 3184 3184 3182 3181
3155 3156 3157 3158 3158 3160 3161 3159 3162 3164 3163 3164 3165 3166 3167 3168 3168 3170 3169 3170 3170 3169 3170 3170 3172 3173 3174 3174 3175 3176 3177 3177 3178 3177 3178 3179 3180 3181 3182 3182 3182 3182 3182 3181 3180 3179 3179 3178 3178
3151 3153 3156 3155 3157 3157 3156 3155 3158 3160 3159 3160 3161 3162 3163 3163 3165 3166 3166 3166 3165 3165 3165 3165 3166 3167 3169 3169 3170 3170 3172 3173 3172 3174 3173 3173 3175 3176 3177 3178 3177 3177 3177 3177 3176 3175 3174 3174 3172
3149 3149 3152 3152 3153 3153 3153 3150 3153 3154 3155 3155 3156 3157 3159 3158 3161 3160 3161 3161 3160 3160 3161 3161 3161 3162 3163 3164 3165 3165 3166 3168 3169 3169 3169 3169 3168 3169 3171 3171 3171 3172 3171 3172 3170 3169 3168 3168 3167
3145 3147 3148 3150 3151 3149 3148 3144 3147 3149 3148 3150 3151 3151 3152 3153 3154 3155 3155 3155 3156 3157 3156 3156 3156 3156 3157 3158 3159 3160 3161 3162 3162 3163 3163 3163 3163 3163 3163 3164 3165 3165 3165 3165 3165 3163 3162 3160 3161
3142 3145 3145 3148 3146 3145 3143 3138 3140 3143 3143 3144 3145 3146 3147 3148 3148 3148 3148 3149 3150 3151 3152 3151 3150 3150 3150 3151 3152 3152 3153 3154 3156 3157 3158 3159 3158 3157 3156 3156 3157 3157 3157 3158 3157 3156 3155 3154 3154
3139 3141 3143 3144 3145 3142 3142 3133 3132 3136 3138 3140 3141 3142 3142 3142 3141 3141 3141 3142 3143 3145 3145 3144 3144 3144 3144 3145 3145 3145 3146 3147 3150 3151 3152 3154 3153 3151 3150 3149 3149 3150 3150 3150 3150 3149 3148 3146 3146
3134 3138 3140 3140 3142 3137 3139 3139 3124 3129 3130 3133 3136 3136 3136 3136 3137 3136 3136 3137 3137 3138 3138 3138 3137 3136 3137 3137 3137 3137 3137 3139 3141 3142 3144 3145 3146 3145 3143 3141 3141 3142 3141 3141 3141 3141 3139 3139 3137
3131 3135 3137 3138 3138 3133 3132 3135 3122 3126 3128 3129 3130 3133 3133 3133 3133 3132 3132 3131 3131 3131 3131 3130 3130 3129 3129 3129 3129 3129 3129 3130 3131 3133 3134 3136 3136 3135 3135 3134 3133 3133 3132 3131 3132 3131 3129 3130 3128
3127 3131 3135 3137 3136 3128 3128 3127 3120 3123 3127 3129 3131 3132 3130 3128 3128 3128 3127 3126 3125 3124 3124 3123 3123 3123 3123 3122 3122 3122 3122 3123 3123 3124 3125 3125 3126 3127 3127 3125 3123 3122 3122 3121 3121 3120 3119 3119 3120
3123 3126 3126 3134 3132 3124 3125 3115 3115 3119 3124 3125 3126 3126 3124 3123 3123 3122 3121 3121 3121 3120 3118 3117 3117 3117 3115 3114 3114 3114 3114 3115 3115 3116 3116 3117 3116 3116 3116 3115 3113 3112 3111 3109 3109 3108 3108 3106 3109
3119 3118 3124 3124 3123 3124 3119 3111 3113 3116 3119 3121 3122 3121 3120 3119 3118 3117 3116 3115 3114 3114 3113 3111 3110 3108 3107 3107 3107 3107 3107 3108 3108 3108 3108 3109 3109 3109 3107 3105 3102 3100 3099 3097 3096 3096 3096 3095 3097
3111 3116 3118 3120 3125 3128 3110 3108 3105 3110 3115 3115 3116 3115 3114 3114 3114 3112 3111 3110 3108 3108 3106 3104 3103 3102 3101 3101 3101 3101 3101 3101 3102 3101 3102 3102 3102 3101 3099 3097 3093 3091 3088 3086 3084 3083 3084 3084 3084
3105 3107 3111 3112 3113 3114 3113 3100 3101 3104 3107 3109 3110 3110 3110 3109 3107 3106 3105 3103 3103 3101 3099 3098 3097 3096 3095 3094 3094 3095 3095 3095 3095 3095 3095 3094 3093 3093 3090 3087 3084 3081 3078 3076 3073 3071 3072 3073 3072
3099 3102 3105 3105 3107 3108 3106 3090 3097 3102 3104 3103 3105 3106 3104 3104 3102 3102 3102 3102 3099 3097 3095 3094 3093 3093 3091 3089 3088 3088 3088 3087 3087 3088 3087 3085 3084 3083 3081 3078 3075 3072 3068 3065 3063 3061 3061 3061 3059